Weather History for Warroad, MN

Change the Weather History Date:

Thursday, November 15, 2012

  Actual Average Record
Temperature  
Mean Temperature 24 °F -  
Max Temperature 35 °F 34 °F 62 °F (1953)
Min Temperature 14 °F 18 °F 1 °F (2002)
Degree Days  
Heating Degree Days 40    
Moisture  
Dew Point 16 °F    
Average Humidity 75    
Maximum Humidity 87    
Minimum Humidity 51    
Precipitation  
Precipitation 0.00 in - - ()
Sea Level Pressure  
Sea Level Pressure 30.27 in    
Wind  
Wind Speed 9 mph (West)    
Max Wind Speed 16 mph    
Max Gust Speed 23 mph    
Visibility 10 miles    
Events      
Averages and records for this station are not official NWS values.
T = Trace of Precipitation, MM = Missing Value Source: NWS Daily Summary

Daily Weather History Graph

Daily Weather History Graph

Search for Another Location

Airport:

Trip Planner

Search our weather history database for the weather conditions in past years. The results will help you decide how hot, cold, wet, or windy it might be!

Date:

Astronomy

Nov. 15, 2012 Rise Set
Actual Time 7:31 AM CST 4:40 PM CST
Civil Twilight 6:56 AM CST 5:14 PM CST
Nautical Twilight 6:18 AM CST 5:53 PM CST
Astronomical Twilight 5:40 AM CST 6:30 PM CST
Moon 9:34 AM CST (11/15) 6:26 PM CST (11/15)
Length of Visible Light 10h 17m
Length of Day
9h 08m
Waxing Crescent, 5% of the Moon is Illuminated
Nov 15
Waxing Crescent
Nov 20
First Quarter
Nov 28
Full
Dec 6
Last Quarter
Dec 13
New

Hourly Weather History & Observations

Time (CST) Temp. Windchill Dew Point Humidity Pressure Visibility Wind Dir Wind Speed Gust Speed Precip Events Conditions
12:14 AM 33.8 °F 25.8 °F 30.2 °F 87% 29.95 in 10.0 mi SSW 10.4 mph - N/A   Scattered Clouds
12:34 AM 35.6 °F 28.6 °F 30.2 °F 81% 29.95 in 10.0 mi SSW 9.2 mph - N/A   Overcast
12:54 AM 33.8 °F 27.0 °F 30.2 °F 87% 29.95 in 10.0 mi SW 8.1 mph - N/A   Scattered Clouds
1:14 AM 33.8 °F 27.0 °F 30.2 °F 87% 29.95 in 10.0 mi SW 8.1 mph - N/A   Clear
1:34 AM 33.8 °F 26.4 °F 30.2 °F 87% 29.95 in 10.0 mi SW 9.2 mph - N/A   Clear
1:54 AM 33.8 °F 26.4 °F 28.4 °F 81% 29.96 in 10.0 mi SW 9.2 mph - N/A   Clear
2:14 AM 33.8 °F 26.4 °F 28.4 °F 81% 29.97 in 10.0 mi WSW 9.2 mph - N/A   Clear
2:34 AM 33.8 °F 24.3 °F 28.4 °F 81% 29.97 in 10.0 mi WSW 13.8 mph 18.4 mph N/A   Clear
2:54 AM 32.0 °F 21.6 °F 28.4 °F 87% 29.98 in 10.0 mi West 15.0 mph 20.7 mph N/A   Clear
3:14 AM 30.2 °F 19.3 °F 26.6 °F 86% 30.00 in 10.0 mi West 15.0 mph 18.4 mph N/A   Clear
3:34 AM 30.2 °F 20.8 °F 26.6 °F 86% 30.01 in 10.0 mi West 11.5 mph 17.3 mph N/A   Clear
3:54 AM 28.4 °F 19.7 °F 24.8 °F 86% 30.03 in 10.0 mi West 9.2 mph - N/A   Clear
4:14 AM 28.4 °F 19.1 °F 24.8 °F 86% 30.05 in 10.0 mi West 10.4 mph 17.3 mph N/A   Clear
4:34 AM 28.4 °F 21.2 °F 24.8 °F 86% 30.06 in 10.0 mi WNW 6.9 mph - N/A   Scattered Clouds
4:54 AM 28.4 °F 19.1 °F 24.8 °F 86% 30.08 in 10.0 mi WNW 10.4 mph - N/A   Mostly Cloudy
5:14 AM 26.6 °F 16.8 °F 23.0 °F 86% 30.09 in 10.0 mi WNW 10.4 mph - N/A   Scattered Clouds
5:34 AM 26.6 °F 17.5 °F 23.0 °F 86% 30.11 in 10.0 mi WNW 9.2 mph - N/A   Clear
5:54 AM 26.6 °F 16.2 °F 21.2 °F 80% 30.12 in 10.0 mi WNW 11.5 mph 18.4 mph N/A   Clear
6:14 AM 24.8 °F 15.3 °F 19.4 °F 80% 30.13 in 10.0 mi WNW 9.2 mph 18.4 mph N/A   Clear
6:34 AM 24.8 °F 14.6 °F 19.4 °F 80% 30.15 in 10.0 mi WNW 10.4 mph - N/A   Clear
6:54 AM 24.8 °F 14.6 °F 17.6 °F 74% 30.16 in 10.0 mi WNW 10.4 mph 16.1 mph N/A   Clear
7:14 AM 23.0 °F 14.7 °F 17.6 °F 80% 30.18 in 10.0 mi West 6.9 mph - N/A   Clear
7:34 AM 21.2 °F 12.6 °F 17.6 °F 86% 30.19 in 10.0 mi West 6.9 mph - N/A   Clear
7:54 AM 21.2 °F 16.4 °F 17.6 °F 86% 30.20 in 10.0 mi West 3.5 mph - N/A   Clear
8:14 AM 21.2 °F 11.7 °F 17.6 °F 86% 30.21 in 10.0 mi West 8.1 mph - N/A   Clear
8:34 AM 21.2 °F 13.6 °F 17.6 °F 86% 30.24 in 10.0 mi WNW 5.8 mph 9.2 mph N/A   Clear
8:54 AM 23.0 °F 13.1 °F 17.6 °F 80% 30.25 in 10.0 mi WNW 9.2 mph - N/A   Clear
9:14 AM 21.2 °F 7.8 °F 15.8 °F 80% 30.26 in 10.0 mi NW 15.0 mph 20.7 mph N/A   Clear
9:34 AM 21.2 °F 9.5 °F 15.8 °F 80% 30.28 in 10.0 mi WNW 11.5 mph 20.7 mph N/A   Clear
9:54 AM 21.2 °F 10.1 °F 15.8 °F 80% 30.29 in 10.0 mi WNW 10.4 mph - N/A   Clear
10:14 AM 21.2 °F 9.5 °F 14.0 °F 74% 30.31 in 10.0 mi WNW 11.5 mph 17.3 mph N/A   Clear
10:34 AM 21.2 °F 10.1 °F 14.0 °F 74% 30.32 in 10.0 mi WNW 10.4 mph - N/A   Clear
10:54 AM 21.2 °F 8.3 °F 12.2 °F 68% 30.33 in 10.0 mi NW 13.8 mph 18.4 mph N/A   Clear
11:14 AM 23.0 °F 9.6 °F 12.2 °F 63% 30.34 in 10.0 mi NW 16.1 mph 23.0 mph N/A   Clear
11:34 AM 23.0 °F 10.6 °F 10.4 °F 59% 30.34 in 10.0 mi NW 13.8 mph - N/A   Clear
11:54 AM 23.0 °F 12.4 °F 12.2 °F 63% 30.35 in 10.0 mi NW 10.4 mph - N/A   Clear
12:14 PM 24.8 °F 13.4 °F 10.4 °F 54% 30.35 in 10.0 mi NW 12.7 mph - N/A   Clear
12:34 PM 24.8 °F 14.0 °F 10.4 °F 54% 30.35 in 10.0 mi NW 11.5 mph 17.3 mph N/A   Clear
12:54 PM 24.8 °F 14.6 °F 10.4 °F 54% 30.36 in 10.0 mi NW 10.4 mph - N/A   Clear
1:14 PM 24.8 °F 17.9 °F 12.2 °F 59% 30.36 in 10.0 mi NW 5.8 mph - N/A   Clear
1:34 PM 26.6 °F 18.2 °F 12.2 °F 55% 30.36 in 10.0 mi West 8.1 mph - N/A   Clear
1:54 PM 26.6 °F 16.8 °F 12.2 °F 55% 30.36 in 10.0 mi West 10.4 mph - N/A   Clear
2:13 PM 26.6 °F 17.5 °F 10.4 °F 51% 30.37 in 10.0 mi WNW 9.2 mph - N/A   Clear
2:34 PM 26.6 °F 18.2 °F 12.2 °F 55% 30.37 in 10.0 mi NW 8.1 mph - N/A   Clear
2:54 PM 26.6 °F 18.2 °F 14.0 °F 59% 30.38 in 10.0 mi NW 8.1 mph - N/A   Clear
3:13 PM 26.6 °F 21.2 °F 12.2 °F 55% 30.39 in 10.0 mi NW 4.6 mph - N/A   Clear
3:34 PM 26.6 °F 20.0 °F 14.0 °F 59% 30.40 in 10.0 mi West 5.8 mph - N/A   Clear
3:54 PM 24.8 °F 19.1 °F 10.4 °F 54% 30.41 in 10.0 mi WNW 4.6 mph - N/A   Clear
4:13 PM 24.8 °F 17.9 °F 10.4 °F 54% 30.41 in 10.0 mi West 5.8 mph - N/A   Clear
4:34 PM 24.8 °F 19.1 °F 10.4 °F 54% 30.42 in 10.0 mi WNW 4.6 mph - N/A   Clear
4:54 PM 23.0 °F 17.0 °F 10.4 °F 59% 30.42 in 10.0 mi West 4.6 mph - N/A   Clear
5:13 PM 21.2 °F 16.4 °F 10.4 °F 63% 30.43 in 10.0 mi SW 3.5 mph - N/A   Clear
5:34 PM 19.4 °F 11.5 °F 12.2 °F 74% 30.43 in 10.0 mi WSW 5.8 mph - N/A   Clear
5:54 PM 19.4 °F 12.8 °F 12.2 °F 74% 30.43 in 10.0 mi WSW 4.6 mph - N/A   Clear
6:13 PM 19.4 °F 12.8 °F 12.2 °F 74% 30.43 in 10.0 mi SW 4.6 mph - N/A   Clear
6:34 PM 19.4 °F 12.8 °F 10.4 °F 68% 30.42 in 10.0 mi WSW 4.6 mph - N/A   Clear
6:54 PM 17.6 °F 10.7 °F 10.4 °F 73% 30.43 in 10.0 mi WSW 4.6 mph - N/A   Clear
7:14 PM 17.6 °F - 10.4 °F 73% 30.42 in 10.0 mi Calm Calm - N/A   Clear
7:34 PM 17.6 °F 12.3 °F 10.4 °F 73% 30.42 in 10.0 mi WSW 3.5 mph - N/A   Clear
7:54 PM 15.8 °F - 8.6 °F 73% 30.42 in 10.0 mi Calm Calm - N/A   Clear
8:14 PM 14.0 °F 8.2 °F 10.4 °F 86% 30.42 in 10.0 mi South 3.5 mph - N/A   Clear
8:34 PM 15.8 °F 8.6 °F 10.4 °F 79% 30.42 in 10.0 mi SSW 4.6 mph - N/A   Clear
8:54 PM 15.8 °F - 10.4 °F 79% 30.42 in 10.0 mi Calm Calm - N/A   Clear
9:14 PM 15.8 °F 8.6 °F 10.4 °F 79% 30.42 in 10.0 mi SSW 4.6 mph - N/A   Clear
9:34 PM 15.8 °F 8.6 °F 10.4 °F 79% 30.43 in 10.0 mi SW 4.6 mph - N/A   Clear
9:54 PM 15.8 °F 8.6 °F 10.4 °F 79% 30.43 in 10.0 mi SSW 4.6 mph - N/A   Scattered Clouds
10:14 PM 15.8 °F 8.6 °F 10.4 °F 79% 30.43 in 10.0 mi SSW 4.6 mph - N/A   Scattered Clouds
10:34 PM 14.0 °F - 10.4 °F 86% 30.43 in 10.0 mi Calm Calm - N/A   Clear
10:54 PM 14.0 °F 8.2 °F 10.4 °F 86% 30.42 in 10.0 mi South 3.5 mph - N/A   Clear
11:14 PM 14.0 °F - 10.4 °F 86% 30.42 in 10.0 mi Calm Calm - N/A   Clear
11:34 PM 14.0 °F 6.5 °F 10.4 °F 86% 30.43 in 10.0 mi SSW 4.6 mph - N/A   Clear
11:54 PM 14.0 °F 6.5 °F 10.4 °F 86% 30.43 in 10.0 mi SSW 4.6 mph - N/A   Clear